Location: ?????
(32.7281°N, 34.9563°E)
Time: 12:10:31
(UTC+00:00)

ASTRO E2 - Pass Details

Date: 29 October 2020
Orbit: 509 x 515 km, 31.4° (Epoch: 26 November)

Event Time Altitude Azimuth Distance (km) Brightness Sun altitude
Rises 15:57:43 0° 267° (W) 2,601 8.2 -14.4°
Reaches altitude 10° 15:59:57 10° 265° (W) 1,715 6.8 -14.9°
Maximum altitude 16:03:53 74° 181° (S) 528 2.7 -15.7°
Enters shadow 16:05:37 32° 101° (ESE) 890 3.3 -16.1°
